HULIANWANG DIGUI-83

Satellite information

Favourite Embed

Satellite Type and Status

PAYLOADIN ORBIT

Key statistics

Satellite HULIANWANG DIGUI-83 at a glance.

Uptime

23

Days in orbit

Revolutions

≈ 13.6

Per day

Orbit

LEO

Low Earth Orbit

Inclination

86.5

Latest

Satellite identification and parameters

Extended collection of information and parameters for HULIANWANG DIGUI-83.

Object identification

Identified? True

Debris? False

Object name: HULIANWANG DIGUI-83

International designator: 2025-220B

Object number (NORAD): 65818

Object ID (CCSDS): 65818

Country: PEOPLES REPUBLIC OF CHINA (PRC)

Current information (Y/N): Y

Orbital parameters

Period: 105.512 minutes

Inclination: 86.5004 deg

SMA: 7396.548 km

Apoapsis: 1020.801 km

Periapsis: 1016.025 km

RAAN: 127.504 deg

Eccentricy: 0.00032288

Argument of periapsis: 192.1088 deg

Mean anomaly: 167.9992 deg

Mean motion: 13.64769059 rev/day

Mean motion (dot): 0.00000038 rev/day2

B* drag term: 0.000026646627 1/REarth

Two-line elements (TLE)

Creation date: Oct. 16, 2025, 6:34 p.m.

Reference frame: TEME

Reference center: EARTH

Epoch: Oct. 13, 2025, 7:33 p.m. UTC

TLE line 0: 0 HULIANWANG DIGUI-83

TLE line 1: 1 65818U 25220B 25286.81493720 .00000038 00000-0 26647-4 0 9996

TLE line 2: 2 65818 86.5004 127.5040 0003229 192.1088 167.9992 13.64769059 2237

Live tracking on map

Real-time ground track for satellite HULIANWANG DIGUI-83.

In-orbit conjunctions

There are no conjunctions computed for HULIANWANG DIGUI-83, at the moment. Check back to stay up to date, as we update our databases every day.

Go to all conjunctions

Associated space launch

A batch of 5 Low Earth Orbit communication satellites for the Chinese state owned SatNet constellation operated by the China Satellite Network Group. The constellation will eventually consists of 13000 satellites.

HULIANWANG DIGUI-83 was lifted into orbit during the mission ‘Long March 6A | SatNet LEO Group 11’, on board a Long March 6A space rocket.

The launch took place on Sept. 27, 2025, 12:40 p.m. from Launch Complex 9A.

For more information about the launch, click the button.

Launch to space Long March 6A | SatNet LEO Group 11
Long March 6A | SatNet LEO Group 11

Agency: N/A

Status: Launch Successful

Launch date: Sept. 27, 2025, 12:40 p.m. UTC

Rocket: Long March 6A

Launch pad: Launch Complex 9A

Location: Taiyuan Satellite Launch Center, People's Republic of China

...

Latest news about this satellite

News about space launch
China boosts broadband, IoT and weather satellite fleets with flurry of launches

A flurry of launch activity has seen China add to an Internet of Things constellation, loft new broadband satellites and boost its weather satellite fleet. The post China boosts broadband, IoT and weather satellite fleets with flurry of launches appeared...

News about space launch
Launch Roundup: Kuiper, Starlink, IMAP headline launch manifest

A busy slate of launches is planned for the last full week of September, including… The post Launch Roundup: Kuiper, Starlink, IMAP headline launch manifest appeared first on NASASpaceFlight.com.


Newsletter sign-up

Weekly statistics, charts and insights to help you stay on top of the space industry.